Regional Weather Roundup
Issued by NWS Upton, NY

Current Version | Previous Version | Graphics & Text | Print | Product List | Glossary Off
Versions: 1 2 3 4 5 6 7 8 9 10 11 12 13 14 15 16 17 18 19 20 21 22 23 24 25 26 27 28 29 30 31 32 33 34 35 36 37 38 39 40 41 42 43 44 45 46 47 48 49 50

000
ASUS41 KOKX 011204
RWROKX

REGIONAL WEATHER ROUNDUP
NATIONAL WEATHER SERVICE NEW YORK NY
800 AM EDT SAT AUG 01 2015

NOTE: "FAIR" INDICATES FEW OR NO CLOUDS BELOW 12,000 FEET WITH NO
SIGNIFICANT WEATHER AND/OR OBSTRUCTIONS TO VISIBILITY.

NYZ071-072-176-178-NJZ106-104-011300-
NEW YORK CITY METRO AREA


CITY           SKY/WX    TMP DP  RH WIND       PRES   REMARKS
CENTRAL PARK   SUNNY     76  60  57 VRB3      29.83S
LAGUARDIA APRT MOSUNNY   79  60  52 SW6       29.79S
KENNEDY INTL   MOSUNNY   78  65  63 SW9       29.81S
NEWARK/LIBERTY MOSUNNY   77  62  59 SW8       29.80S
BRNX BOT. GARD   N/A     77  59  53 W13       29.81S
TETERBORO      SUNNY     77  61  57 S5        29.79R
$$

NYZ177-179-078>081-011300-
LONG ISLAND NEW YORK

CITY           SKY/WX    TMP DP  RH WIND       PRES   REMARKS
FARMINGDALE    SUNNY     77  64  64 W8        29.81R
ISLIP          MOSUNNY   77  64  64 W9        29.78S
SHIRLEY        SUNNY     78  65  63 W7        29.80S
WESTHAMPTON    SUNNY     78  69  73 SW7       29.81S
MONTAUK POINT    N/A     78  65  63 SW7       29.80S
$$

NYZ052-065-067-011300-
HUDSON VALLEY

CITY           SKY/WX    TMP DP  RH WIND       PRES   REMARKS
WHITE PLAINS   MOSUNNY   75  61  61 W8        29.80S
NEWBURGH       NOT AVBL
MONTGOMERY     PTSUNNY   70  63  78 SW8       29.80R
POUGHKEEPSIE   SUNNY     74  61  63 S7        29.78S
ALBANY         LGT RAIN  69  61  75 SE5       29.77F
$$

NJZ001-105-106-008-010-013-015-019>022-104-011300-
NEW JERSEY

CITY           SKY/WX    TMP DP  RH WIND       PRES   REMARKS
NEWARK/LIBERTY MOSUNNY   77  62  59 SW8       29.80S
TETERBORO      SUNNY     77  61  57 S5        29.79R
CALDWELL       SUNNY     74  61  63 SW3       29.81R
MORRISTOWN     MOSUNNY   77  66  69 SW3       29.81S
SOMERVILLE     SUNNY     70  63  78 CALM      29.81R
SUSSEX         MOSUNNY   68  63  84 S3        29.82S
ANDOVER          N/A     68  63  84 CALM      29.83S
TRENTON        MOSUNNY   74  63  68 W7        29.83R
MILLVILLE      SUNNY     77  68  73 W6        29.85S
ATLANTIC CITY  MOSUNNY   76  67  73 SW7       29.85S
WRIGHTSTOWN    NOT AVBL
TOMS RIVER       N/A     75  66  73 SW7       29.84S
BELMAR         SUNNY     73  63  68 SW7       29.83S
$$

PAZ047>061-062-071-011300-
EASTERN PENNSYLVANIA

CITY           SKY/WX    TMP DP  RH WIND       PRES   REMARKS
PHILADELPHIA   MOSUNNY   78  64  61 SW8       29.85R
ALLENTOWN      MOSUNNY   72  64  76 W5        29.84R
SCRANTON       SUNNY     72  61  68 SW7       29.84R
$$

CTZ002-004>006-009-010-012-RIZ004-006-007-MAZ004-011-015-011300-
SOUTHERN NEW ENGLAND
 IN CT

CITY           SKY/WX    TMP DP  RH WIND       PRES   REMARKS
BRADLEY INTL   MOSUNNY   73  61  65 SE5       29.76S
HARTFORD       SUNNY     75  63  66 S6        29.76S
DANBURY        SUNNY     73  61  65 W8        29.82R
WTRBRY/OXFORD  MOSUNNY   72  61  68 CALM      29.81S
BRIDGEPORT     SUNNY     78  63  59 SW8       29.78S
MERIDEN        SUNNY     73  62  68 S5        29.78S
NEW HAVEN      SUNNY     74  64  71 SW3       29.78S
CHESTER        FAIR      73  64  73 SW7       29.80S
GROTON         SUNNY     75  68  78 W6        29.77S
WILLIMANTIC    SUNNY     68  61  78 CALM      29.79R

 IN RI

CITY           SKY/WX    TMP DP  RH WIND       PRES   REMARKS
PROVIDENCE     MOSUNNY   74  62  66 W9        29.77S
BLOCK ISLAND     N/A     75  66  73 SW10      29.80S
WESTERLY       SUNNY     75  68  78 SW5       29.79R

 IN MA

CITY           SKY/WX    TMP DP  RH WIND       PRES   REMARKS
BOSTON         SUNNY     77  58  51 SW15G23   29.74F
WORCESTER      SUNNY     70  58  65 W10       29.79S
WESTFIELD      SUNNY     70  62  76 CALM      29.78R
PROVINCETOWN   MOSUNNY   75  63  64 SW12      29.77R
NANTUCKET      SUNNY     74  70  87 SW8       29.80R
$$

ANZ330-335-338-340-345-350-353-355-011300-
COASTAL MARINE OBSERVATIONS


STATION/POSITION TIME  SKY/WX   TEMP    WIND        PRES    VSBY  WAVE
                                AIR SEA DIR/SP/G                  HT/PER
                 (UTC)          (F)     (DEG/KT/KT) (MB)    (MI)  (FT/S)
NY HARB ENTRANCE 1050            75 76  250/ 14/ 16 1008.7          3/ 7
4S FIRE IS       NOT AVBL
20S FIRE ISLAND  1050            77 75  240/ 12/ 14 1008.8          4/ 8
GREAT SOUTH BAY  1100            77 80  260/ 14/ 17   N/A
23SW MTP         1150            75 74  240/ 12/ 14 1008.5          4/10
HUDSON CANYON    NOT AVBL
KINGS POINT      1100            76 70  250/  5/  6 1008.1
EXECUTION ROCKS  1100            78     220/  4/  4   N/A
CENTRAL LI SOUND NOT AVBL
EASTERN LI SOUND 1100            70 68   CALM  /  2   N/A
ROBBINS REEF     1100            74     260/ 12/ 14 1007.9
$$


>>>>>>>>>>>>>>>>>>>>>>>>>>>> KEY <<<<<<<<<<<<<<<<<<<<<<<<<<<
>                                                          <
>     SKY/WX - SKY CONDITION/PRESENT WEATHER               <
>     TMP    - TEMPERATURE IN FAHRENHEIT                   <
>     DP     - DEWPOINT IN FAHRENHEIT                      <
>     RH     - RELATIVE HUMIDITY IN PERCENT                <
>     WIND   - DIRECTION AND SPEED IN MPH                  <
>     PRES   - MEAN SEA LEVEL PRESSURE IN INCHES OF HG     <
>     WCI    - WIND CHILL INDEX                            <
>     VSB    - VISIBILITY IN MILES                         <
>     HX     - HEAT INDEX                                  <
>     TC     - TEMPERATURE IN CELSIUS                      <
>     VRB    - VARIABLE WIND DIRECTION                     <
>                                                          <
>>>>>>>>>>>>>>>>>>>>>>>>>>>> KEY <<<<<<<<<<<<<<<<<<<<<<<<<<<





USA.gov is the U.S. government's official web portal to all federal, state and local government web resources and services.